Wind_Speed
25 25 26 25 25 25 25 24 26 28 28 28 27 28 28 20 14 13 13 11 13 12 11 7 10 11 2 1 8 7 5 5 5 4 4 3 3 3 4 3 2 9 13 7 12 19 12
25 27 28 28 27 26 26 25 25 27 28 29 30 31 28 20 13 14 10 11 10 10 10 5 7 4 3 3 4 5 10 9 6 7 5 6 4 4 4 5 9 3 9 18 13 14 14
26 25 27 30 29 27 26 27 25 27 29 29 31 32 24 18 16 12 10 9 10 8 9 7 4 4 3 10 3 2 10 12 10 10 4 7 6 4 2 5 8 9 8 9 15 15 7
25 27 29 27 29 28 28 28 26 28 30 33 35 34 23 17 15 9 8 8 8 7 11 8 3 4 5 8 6 10 12 13 17 18 15 8 9 4 3 5 4 6 7 8 11 14 9
26 27 27 30 28 28 28 29 30 32 32 31 31 34 22 17 11 8 8 9 8 7 9 5 4 3 7 4 5 7 13 8 6 9 8 7 4 4 5 7 5 3 7 15 7 17 8
26 27 28 28 29 30 29 29 29 31 32 35 31 27 21 19 11 9 6 4 8 4 5 5 4 1 5 3 3 3 3 4 1 1 2 4 4 3 3 4 5 6 7 7 14 13 18
28 29 29 29 30 30 29 30 30 30 33 30 38 26 18 17 10 8 6 6 2 1 7 7 6 2 2 2 5 3 5 6 1 2 4 4 5 8 8 11 12 9 16 4 3 7 12
29 28 29 30 29 30 29 30 30 32 30 33 36 39 18 15 11 10 9 3 5 1 3 9 3 5 8 3 3 3 9 4 3 4 3 2 9 10 8 8 8 15 10 3 6 4 5
31 31 31 31 31 32 32 31 31 30 32 33 32 34 17 13 11 11 14 10 4 5 1 0 4 4 3 7 3 4 7 3 4 3 5 7 6 10 10 3 10 2 10 6 7 9 9
32 33 33 33 34 34 34 35 36 33 32 32 29 30 16 15 9 10 6 14 7 6 3 2 3 3 3 3 4 6 5 4 1 4 5 8 6 8 9 3 2 5 4 9 15 4 3
36 35 34 35 35 36 36 36 36 36 36 33 36 33 18 21 9 8 3 17 11 1 3 3 3 3 3 4 2 3 2 3 6 3 3 2 3 6 7 2 2 2 10 11 9 7 4
33 35 34 34 34 35 35 35 34 35 37 37 42 35 26 18 7 7 15 16 6 3 4 3 4 3 1 5 4 3 3 4 3 4 3 5 8 3 3 2 3 11 12 8 7 3 3
36 35 34 35 36 36 35 35 34 35 34 37 29 30 22 14 5 17 18 5 1 4 2 3 4 3 4 1 2 4 2 3 2 2 2 4 5 2 4 5 4 2 3 3 2 2 2
35 37 36 37 36 35 33 35 35 36 37 43 35 28 25 19 11 24 12 2 2 4 5 3 3 3 1 1 2 1 3 3 2 2 1 2 2 1 1 2 3 4 3 3 4 3 2
37 38 37 39 37 35 33 33 34 37 42 62 16 18 19 22 18 25 3 1 5 6 6 7 4 3 3 2 1 4 0 3 2 2 1 1 3 4 9 6 5 4 3 3 6 3 3
38 38 39 39 37 35 32 33 33 34 37 13 14 12 9 19 26 14 2 3 2 2 5 3 3 1 4 2 1 3 4 2 3 2 4 4 4 4 3 1 3 3 6 3 2 4 3
39 39 39 40 36 34 34 32 32 31 33 36 11 4 14 21 19 2 2 4 3 4 4 5 4 3 2 3 2 1 3 3 4 5 2 1 3 3 4 6 4 4 3 5 4 2 3
39 39 39 40 37 36 33 32 32 26 32 15 2 3 20 27 4 2 2 4 4 3 2 3 4 4 4 4 1 3 3 2 7 2 2 3 4 4 1 3 3 2 3 4 4 2 2
40 38 39 40 38 36 34 31 24 28 23 2 2 1 12 5 3 2 3 2 5 4 4 3 3 3 2 4 2 1 1 3 7 6 3 3 3 3 6 5 3 4 3 4 4 3 1
39 39 39 39 39 37 32 26 27 25 26 8 2 3 2 2 2 3 2 3 4 3 3 4 3 5 3 3 3 2 3 5 6 6 9 4 3 3 5 4 2 3 2 1 3 3 3
38 40 40 39 39 37 30 27 26 22 17 5 2 2 1 4 4 1 3 4 4 3 3 4 3 3 4 3 2 2 2 5 4 7 4 3 4 4 5 5 3 1 1 3 2 4 4
40 41 41 41 40 37 34 32 23 15 11 3 2 2 2 2 3 4 4 4 4 3 3 2 5 3 3 4 0 4 3 2 1 5 4 4 1 2 5 6 6 3 4 2 3 2 3
43 43 43 46 46 51 40 28 19 9 28 4 2 2 2 3 3 4 3 1 4 6 4 4 4 5 6 1 3 3 3 4 3 1 2 3 3 3 3 5 4 4 2 2 1 0 2
43 44 46 47 52 27 13 3 19 18 18 12 4 4 3 2 2 4 2 2 5 3 5 3 5 4 2 3 2 2 7 8 8 6 2 3 3 2 1 4 2 4 2 2 1 2 3
40 42 44 48 27 21 19 18 26 34 20 20 6 3 3 3 1 1 3 5 6 6 5 4 5 1 1 4 4 5 5 4 5 5 6 4 4 3 3 1 4 2 2 1 1 2 1
35 38 40 39 31 44 44 37 32 29 20 17 18 4 3 4 1 4 3 2 4 3 4 4 4 1 4 3 3 2 2 1 1 3 3 4 6 4 1 3 2 2 1 2 1 4 1
33 33 32 27 19 19 23 28 27 22 16 13 14 7 5 4 3 4 3 2 2 4 4 1 2 3 3 2 2 2 1 2 2 3 1 2 3 2 2 1 5 2 3 3 2 3 2
30 29 29 14 7 9 6 12 12 10 12 11 14 15 4 3 3 3 4 3 3 2 4 2 3 3 3 3 2 1 2 2 2 2 3 4 4 2 2 2 6 2 2 3 2 2 2
26 25 25 7 7 6 5 8 9 9 7 7 8 11 13 5 3 3 10 13 4 1 3 2 3 1 2 4 1 2 1 1 3 2 1 1 4 3 6 4 0 1 1 1 2 4 3
Wind_Direction
345 343 339 337 334 329 327 333 330 331 328 323 322 285 258 249 258 257 275 281 285 286 288 289 315 313 217 88 250 254 221 207 207 215 189 175 205 195 222 233 142 239 252 285 244 263 276
347 343 342 342 335 331 328 325 331 334 332 325 324 325 252 242 250 269 269 281 286 281 282 285 308 301 129 275 262 271 218 215 224 207 199 177 208 213 276 254 234 236 253 255 276 280 257
346 346 343 343 340 338 337 336 329 331 330 330 324 318 253 239 238 265 262 278 284 277 276 282 282 262 206 243 237 263 198 219 241 236 199 224 199 177 6 268 222 233 289 292 236 249 275
347 347 344 347 346 340 340 338 337 335 335 335 336 332 244 229 234 251 254 269 271 270 282 283 241 169 250 258 278 250 216 238 269 250 245 225 197 208 195 284 274 204 221 248 218 212 239
343 342 346 346 346 343 340 341 337 332 330 330 326 334 253 224 230 236 246 277 278 278 268 203 146 137 265 301 241 269 229 220 268 255 231 175 143 234 236 200 237 216 217 213 194 196 232
341 343 341 342 341 342 342 340 337 336 333 330 329 315 259 221 223 215 227 278 283 138 179 140 100 119 262 235 225 234 231 203 149 165 113 217 199 237 223 187 222 199 195 205 190 180 202
339 340 340 341 337 337 337 337 335 336 333 330 332 322 256 206 192 211 196 112 210 60 224 193 179 223 259 292 268 228 184 125 91 149 211 204 240 242 239 256 244 282 207 174 178 173 172
335 335 335 335 334 334 334 334 335 333 329 333 336 336 223 196 185 186 203 181 230 202 223 222 212 250 262 242 269 197 172 175 186 197 216 261 259 274 257 249 237 237 153 116 49 134 94
332 331 331 332 328 329 331 333 335 334 330 329 330 321 213 181 169 184 202 202 193 223 94 256 177 201 208 163 228 238 169 178 196 216 224 242 258 321 273 205 279 133 151 159 121 109 85
329 328 328 328 327 327 329 331 332 329 330 326 329 323 257 170 171 180 209 219 176 224 69 191 223 262 127 231 241 198 197 184 204 236 239 260 283 269 260 219 249 120 162 145 133 96 89
326 325 323 326 327 326 325 326 326 324 325 322 324 319 253 177 158 159 178 160 174 216 43 200 186 166 134 214 153 195 127 121 220 237 177 248 264 212 242 322 263 81 94 91 101 93 96
323 320 320 321 321 322 321 319 318 318 321 321 322 312 178 184 170 145 152 156 144 47 258 157 146 207 197 213 202 177 199 146 256 218 211 263 284 221 193 286 65 144 92 70 58 56 89
320 322 322 320 320 318 316 314 314 315 316 312 309 299 187 177 186 154 154 128 101 138 281 177 198 176 231 177 236 195 221 208 245 251 117 153 165 79 50 98 9 173 104 75 40 52 21
320 321 321 319 317 315 315 314 314 315 314 311 294 286 189 179 159 163 154 105 155 202 184 122 122 133 205 2 263 250 319 302 278 234 104 105 110 150 103 179 115 129 47 137 127 130 137
322 319 320 318 316 318 319 316 315 317 317 307 278 173 170 186 169 168 132 174 195 202 150 145 96 99 357 300 259 345 213 331 1 20 113 73 76 183 188 230 158 177 87 270 81 41 98
320 320 321 320 320 321 321 316 315 320 327 103 111 132 149 182 174 162 189 264 174 207 118 114 136 187 144 206 344 348 2 330 7 185 222 214 86 350 355 220 26 138 151 99 29 139 98
318 320 319 319 319 322 320 318 314 319 323 319 137 132 166 165 162 184 210 228 224 212 147 135 154 132 154 167 211 20 324 318 7 322 128 131 81 330 10 9 353 21 33 55 101 60 126
319 320 320 320 322 322 319 317 315 328 325 331 77 107 164 160 163 175 179 203 194 170 167 119 106 118 157 183 80 3 346 275 341 285 36 328 107 73 128 262 258 229 144 125 108 223 68
320 323 322 319 320 320 319 315 317 322 321 263 105 73 149 164 167 152 271 259 186 161 167 129 125 142 155 139 104 249 283 302 353 35 26 341 26 63 354 356 348 52 19 81 92 73 16
323 323 322 321 320 319 317 317 315 316 317 167 124 112 84 244 108 134 214 210 120 1 102 86 93 100 107 86 11 122 33 356 2 15 25 60 58 128 170 204 164 156 170 93 102 85 177
324 324 323 321 320 318 311 306 310 309 315 127 68 77 71 178 203 202 315 199 119 98 55 58 64 119 127 105 104 98 54 12 6 343 26 78 84 45 21 12 349 331 172 166 100 165 127
327 327 328 327 318 311 309 302 294 291 178 75 109 125 52 5 108 134 290 168 111 75 56 74 117 72 63 100 179 200 115 90 332 353 41 10 111 79 3 7 18 22 11 22 13 91 78
332 334 334 328 323 315 307 294 276 228 170 103 102 88 117 62 89 120 245 154 106 118 43 39 123 96 61 78 165 122 104 92 89 65 49 54 110 52 307 348 347 352 280 215 227 177 108
336 339 337 336 337 341 330 176 171 163 156 127 91 104 92 131 127 211 176 72 124 47 127 29 41 82 143 94 109 110 72 73 65 35 58 105 76 67 203 356 31 252 315 286 321 18 4
338 340 343 348 7 45 74 120 149 151 135 127 73 69 110 114 218 295 74 105 76 49 56 65 13 335 80 50 52 43 356 31 11 35 39 72 106 69 96 192 286 59 337 36 55 322 121
340 346 350 1 43 84 84 94 119 137 120 106 53 89 110 121 46 314 46 61 118 96 23 32 1 358 57 77 77 110 182 177 0 22 29 79 91 103 78 100 244 239 293 352 164 297 99
343 347 353 11 64 84 93 96 97 102 111 90 42 51 97 103 351 340 60 47 54 91 93 12 349 37 47 63 76 130 198 191 147 139 188 24 48 150 130 246 289 277 304 313 97 250 132
343 348 350 12 64 107 104 103 111 101 67 69 58 37 99 97 18 4 15 29 11 37 127 216 63 354 43 66 116 197 121 226 85 179 180 162 134 191 78 233 287 24 321 185 203 39 112
343 347 352 85 89 83 145 122 115 113 58 50 54 40 61 77 137 114 75 53 42 8 126 38 151 127 169 95 84 117 138 89 161 227 21 206 178 183 181 220 312 349 222 262 182 152 156
Height
839 835 832 826 822 819 815 810 807 804 802 799 795 790 789 789 790 789 792 791 792 791 789 789 789 790 790 792 785 780 780 780 780 781 782 783 785 784 784 781 780 780 773 768 765 764 761
839 837 831 825 820 817 811 808 802 800 799 795 792 787 783 785 787 787 787 790 787 788 789 786 787 788 789 793 778 778 778 779 779 780 780 782 783 782 784 781 779 772 771 769 766 763 759
839 833 827 824 819 814 810 803 799 797 794 789 787 783 780 780 782 783 785 786 786 786 787 785 785 787 787 783 777 776 776 777 778 778 779 779 781 783 781 777 773 773 778 770 762 762 760
836 832 828 821 817 813 807 803 797 794 791 786 783 777 773 775 777 780 782 782 783 782 785 784 783 785 784 775 775 775 775 775 776 776 777 777 779 780 781 778 773 773 775 771 754 756 757
834 830 824 821 815 811 805 800 796 791 788 783 778 776 771 771 773 777 778 781 780 779 783 783 782 784 783 774 774 771 772 773 773 773 775 776 778 778 776 776 772 770 766 769 753 747 751
832 827 824 818 814 809 804 798 793 789 785 780 774 770 768 768 770 773 774 776 780 776 781 781 781 787 777 773 771 770 770 771 773 773 775 777 777 776 772 765 760 761 762 751 746 746 749
829 824 820 815 811 807 801 796 791 785 781 777 771 766 763 763 765 772 775 773 783 781 778 771 771 772 771 770 769 769 769 771 773 773 777 773 772 767 768 764 759 760 753 744 737 737 745
827 821 816 813 808 805 798 794 787 784 778 774 769 763 760 759 764 767 772 772 768 770 769 767 768 771 768 769 770 768 769 773 773 774 772 776 768 760 755 754 753 750 740 745 744 737 744
824 819 814 809 805 801 795 790 784 779 774 770 766 764 759 758 762 765 767 767 766 771 769 764 765 766 764 767 765 767 768 768 772 774 771 771 756 752 751 754 745 739 736 743 743 751 758
819 814 810 805 801 795 788 783 778 773 770 766 763 760 761 758 763 760 764 762 765 770 788 766 764 762 763 764 763 762 764 768 767 769 769 767 755 753 751 750 737 737 737 736 743 750 758
814 810 805 800 794 789 783 778 773 768 763 761 758 752 754 753 753 755 759 759 765 771 802 762 763 759 760 765 762 760 763 765 765 761 766 760 757 754 750 741 739 742 734 739 747 761 759
811 806 801 796 790 785 779 774 770 764 760 756 754 749 744 752 753 753 757 762 767 783 794 761 760 761 764 760 756 758 760 764 763 764 767 761 753 745 741 740 742 741 742 745 754 758 764
807 802 796 791 786 780 775 769 763 758 754 752 749 745 746 748 750 752 758 764 775 786 757 759 758 758 759 755 751 755 752 755 753 752 748 750 746 743 744 746 742 739 741 757 761 762 761
803 797 791 786 780 775 770 764 757 752 745 740 737 737 739 745 748 752 757 769 768 762 754 749 752 757 757 756 750 749 755 749 754 750 744 747 752 746 748 748 747 744 748 750 753 762 766
797 791 785 780 774 769 764 758 752 746 736 723 715 726 735 742 746 751 758 770 760 751 739 748 752 768 775 756 755 753 751 750 745 745 748 746 741 747 750 743 740 745 755 743 754 761 770
792 785 779 772 767 763 759 753 748 741 732 717 718 727 735 740 745 751 754 746 745 738 739 740 751 752 759 757 756 755 755 747 746 747 745 745 743 745 740 739 739 736 745 754 768 765 765
787 780 774 766 762 758 753 747 743 739 731 723 722 729 735 740 747 750 746 756 742 734 734 740 752 754 756 757 753 753 754 746 749 745 744 744 745 749 747 757 757 749 748 759 761 769 761
781 775 767 760 757 753 748 743 738 734 730 726 725 729 736 742 745 743 750 745 734 733 733 734 741 750 757 757 745 752 753 753 749 747 746 748 761 759 755 753 754 752 751 758 767 768 792
776 769 762 754 750 747 742 739 734 731 728 726 729 729 738 742 740 742 744 734 732 731 732 732 737 741 749 755 755 754 753 750 750 749 751 746 768 792 773 762 750 749 746 756 766 775 783
771 765 757 749 743 740 736 733 730 728 726 728 732 735 740 743 743 746 739 734 732 729 730 731 736 740 746 751 753 756 754 751 751 750 746 748 768 765 780 762 758 753 751 753 759 792 773
765 758 750 743 735 730 728 725 724 724 725 728 732 735 737 739 741 746 742 733 731 734 732 734 737 738 742 753 754 757 754 755 751 751 750 754 771 778 770 764 757 754 754 755 769 762 766
760 751 744 736 728 719 716 716 718 720 723 729 733 735 740 743 743 749 742 730 731 740 737 739 742 746 744 749 750 755 754 755 756 754 757 764 786 778 783 770 766 756 759 758 758 758 757
755 746 738 727 716 703 699 702 707 715 724 727 734 736 736 741 750 751 740 733 733 738 745 747 744 749 752 754 755 756 757 761 758 758 764 769 782 793 788 781 768 771 761 760 760 760 761
753 744 733 721 704 689 682 689 701 713 723 727 732 735 739 747 753 750 737 733 741 742 746 752 750 748 755 755 756 755 758 764 764 769 765 771 779 796 802 785 792 768 768 766 765 772 772
753 744 733 720 706 695 692 698 708 718 725 729 733 736 744 754 754 743 740 744 749 753 756 757 758 758 756 757 764 766 773 762 769 768 769 768 780 796 799 807 778 767 768 769 763 765 773
756 746 737 727 719 712 712 714 719 726 729 732 738 738 742 748 756 763 749 745 750 759 761 760 759 758 758 767 770 774 779 773 773 768 767 770 775 784 789 794 774 769 768 769 766 778 777
757 749 743 735 732 728 727 728 731 733 735 736 740 740 742 758 767 763 755 754 755 758 769 765 762 760 761 772 772 776 787 775 776 773 774 777 774 772 778 803 783 774 772 770 773 779 779
758 752 744 739 736 734 734 735 737 737 738 738 744 742 743 760 768 766 764 761 759 758 762 767 766 765 770 771 774 779 780 782 782 779 779 779 790 790 784 780 796 782 771 771 781 784 783
759 754 747 741 740 738 738 738 739 740 742 743 745 747 746 751 768 767 767 767 767 766 768 771 770 770 771 777 782 785 780 791 789 781 783 781 781 783 787 781 783 784 781 783 783 783 785